Weather in Brooklyn Borough

United States     40°38′58″N   73°57′24″W
temp.,
°C
wind,
m/s
gust,
m/s
humid.,
%
clouds,
%
prec.,
mm/h
press.,
hPa
HPBL,
m
7 may, fri
fri723:00+14n4739100 0.0 1014517
02:00+12n3538100 0.0 1014314
05:00+11nne374699 0.0 1013395
08:00+12ne45505 0.0 1014539
11:00+16ese333816 0.0 10131522
14:00+17sse5539100 0.0 10111673
17:00+15sse5651100 0.0 10101020
20:00+13se5755100 0.0 1011763
8 may, sat
sat823:00+12se4766100 0.0 1011760
02:00+11ese4668100 0.0 1010567
05:00+10ese4668100 0.0 1009580
08:00+11ese5661100 0.0 1010859
11:00+11se3457100 0.3 10111369
14:00+10se3371100 1.1 10111204
17:00+9n2381100 1.3 1013596
20:00+9nw3480100 1.9 1015650
9 may, sun
sun923:00+8wnw398328 0.1 1017564
02:00+8w398310 0.1 1017324
05:00+7w2685100 0.0 1017227
08:00+10w3469100 0.0 1019287
11:00+15sw4645100 0.0 10181274
14:00+17ssw7738100 0.0 10151956
17:00+10sw5885100 3.5 1016679
20:00+9se5886100 5.6 1013711
10 may, mon
mon1023:00+10se61293100 4.9 1009529
02:00+11ese2497100 9.3 1005199
05:00+11w31596100 0.1 1005566
08:00+12nw3892100 0.2 1008516
11:00+12nw4779100 0.2 1010606
14:00+17wnw575097 0.2 10101321
17:00+18nw684099 0.0 10101814
20:00+16wnw234611 0.0 101297
11 may, tue
tue1123:00+13nnw495061 0.0 1014678
02:00+11nw51057100 0.0 1015676
05:00+9nw51150100 0.0 1016819
08:00+9nw610525 0.0 1017912
11:00+13nw69345 0.0 10171906
14:00+16nw7102410 0.0 10152582
17:00+16nw91222100 0.0 10143204
20:00+13nw714403 0.0 10172323